Regional Weather Roundup
Issued by NWS

Home | Current Version | Previous Version | Graphics & Text | Print | Product List | Glossary On
Versions: 1 2 3 4 5 6 7 8 9 10 11 12 13 14 15 16 17 18 19 20 21 22 23 24 25 26 27 28 29 30 31 32 33 34 35 36 37 38 39 40 41 42 43 44 45 46 47 48 49 50
000
ASUS45 KCYS 021710
RWRWY

WYOMING REGIONAL WEATHER ROUNDUP
NATIONAL WEATHER SERVICE CHEYENNE WY
1100 AM MDT TUE JUN 02 2015

NOTE:  "FAIR" INDICATES FEW OR NO CLOUDS BELOW 12,000 FEET
WITH NO SIGNIFICANT WEATHER AND/OR OBSTRUCTIONS TO VISIBILITY.

WYZ001-021800-
...YELLOWSTONE NATIONAL PARK...

CITY           SKY/WX    TMP DP  RH WIND       PRES   REMARKS
LK YELLOWSTONE   N/A     48  38  68 E5        30.13F
W YELLOWSTONE  NOT AVBL

$$
WYZ002>013-054>058-071-098>099-021800-
...NORTHERN WYOMING...

CITY           SKY/WX    TMP DP  RH WIND       PRES   REMARKS
JACKSON        MOSUNNY   54  46  76 CALM      30.08F
CODY           MOSUNNY   68  45  42 NE5       29.93F
GREYBULL       SUNNY     69  48  47 CALM      29.91F
WORLAND        MOSUNNY   70  52  52 N6        29.91F
SHERIDAN       MOSUNNY   68  48  48 VRB3      29.91S
BUFFALO        MOSUNNY   66  51  58 CALM      29.94F
GILLETTE       MOSUNNY   71  53  52 N7        29.90F
HULETT         FAIR      70  52  52 W8        29.91S
NEWCASTLE      FAIR      72  50  46 NW9       29.90S

$$
WYZ014>020-022>026-101>103-021800-
...CENTRAL WYOMING...

CITY           SKY/WX    TMP DP  RH WIND       PRES   REMARKS
BIG PINEY      SUNNY     61  38  42 SE5       30.08F
PINEDALE       SUNNY     61  32  33 CALM      30.08F
DUBOIS         FAIR      63  30  29 NW7       30.05F
LANDER         SUNNY     67  43  41 VRB3      29.97F
RIVERTON       SUNNY     66  43  43 CALM      29.98F
CASPER         SUNNY     73  49  42 SW8       29.96S
DOUGLAS        SUNNY     73  50  44 N5        29.94S

$$
WYZ021-027>030-104>119-021800-
...SOUTHERN WYOMING...

CITY           SKY/WX    TMP DP  RH WIND       PRES   REMARKS
EVANSTON       SUNNY     66  32  28 SW18      30.09S
KEMMERER       SUNNY     64  39  39 W8        30.10S
FORT BRIDGER   SUNNY     64  43  45 N7        30.11F
ROCK SPRINGS   MOSUNNY   66  38  35 W8        30.07S
DIXON          FAIR      73  39  28 S15       30.09S
RAWLINS        SUNNY     71  41  33 SW16G22   30.05F
SARATOGA       FAIR      73  32  21 W16G23    30.07F
LARAMIE        SUNNY     72  34  24 W14       30.07F
CHEYENNE       SUNNY     77  43  29 VRB3      30.00S
TORRINGTON     SUNNY     73  61  65 VRB6      29.88F
PINE BLUFFS    FAIR      72  55  56 SW6       29.96F

$$



USA.gov is the U.S. government's official web portal to all federal, state and local government web resources and services.